TimeEDT,TemperatureF,Dew PointF,Humidity,Sea Level PressureIn,VisibilityMPH,Wind Direction,Wind SpeedMPH,Gust SpeedMPH,PrecipitationIn,Events,Conditions,WindDirDegrees,DateUTC
12:15 AM,68.0,60.8,78,30.01,10.0,ENE,3.5,-,N/A,,Scattered Clouds,60,2013-10-21 04:15:00
12:35 AM,68.0,60.8,78,30.00,10.0,NE,4.6,-,N/A,,Mostly Cloudy,40,2013-10-21 04:35:00
12:53 AM,69.1,60.1,73,29.99,-9999.0,ENE,3.5,-,N/A,,Unknown,70,2013-10-21 04:53:00
12:55 AM,68.0,60.8,78,30.00,10.0,ENE,3.5,-,N/A,,Mostly Cloudy,70,2013-10-21 04:55:00
1:15 AM,68.0,60.8,78,30.00,10.0,ENE,3.5,-,N/A,,Mostly Cloudy,70,2013-10-21 05:15:00
1:35 AM,68.0,60.8,78,30.00,10.0,ENE,3.5,-,N/A,,Mostly Cloudy,70,2013-10-21 05:35:00
1:53 AM,69.1,61.0,75,29.99,-9999.0,ENE,3.5,-,N/A,,Unknown,60,2013-10-21 05:53:00
1:55 AM,66.2,60.8,83,30.00,10.0,Calm,Calm,-,N/A,,Overcast,0,2013-10-21 05:55:00
2:15 AM,66.2,60.8,83,30.00,10.0,Calm,Calm,-,N/A,,Overcast,0,2013-10-21 06:15:00
2:35 AM,66.2,60.8,83,30.00,10.0,Calm,Calm,-,N/A,,Mostly Cloudy,0,2013-10-21 06:35:00
2:53 AM,66.9,61.0,81,29.99,-9999.0,Calm,Calm,-,N/A,,Unknown,0,2013-10-21 06:53:00
2:55 AM,64.4,60.8,88,30.00,10.0,Calm,Calm,-,N/A,,Scattered Clouds,0,2013-10-21 06:55:00
3:15 AM,64.4,60.8,88,30.00,10.0,Calm,Calm,-,N/A,,Scattered Clouds,0,2013-10-21 07:15:00
3:35 AM,64.4,60.8,88,30.00,10.0,Calm,Calm,-,N/A,,Overcast,0,2013-10-21 07:35:00
3:53 AM,66.9,62.1,84,29.99,-9999.0,Calm,Calm,-,N/A,,Unknown,0,2013-10-21 07:53:00
3:55 AM,64.4,60.8,88,30.00,10.0,Calm,Calm,-,N/A,,Overcast,0,2013-10-21 07:55:00
4:15 AM,64.4,60.8,88,30.01,10.0,Calm,Calm,-,N/A,,Overcast,0,2013-10-21 08:15:00
4:35 AM,64.4,60.8,88,30.01,10.0,Calm,Calm,-,N/A,,Overcast,0,2013-10-21 08:35:00
4:53 AM,66.9,61.0,81,29.99,-9999.0,NNE,4.6,-,N/A,,Unknown,20,2013-10-21 08:53:00
4:55 AM,64.4,60.8,88,30.00,10.0,NNE,3.5,-,N/A,,Mostly Cloudy,20,2013-10-21 08:55:00
5:15 AM,64.4,60.8,88,30.00,10.0,NE,3.5,-,N/A,,Mostly Cloudy,40,2013-10-21 09:15:00
5:35 AM,64.4,60.8,88,30.00,10.0,ENE,3.5,-,N/A,,Mostly Cloudy,60,2013-10-21 09:35:00
5:53 AM,68.0,61.0,78,30.00,-9999.0,Calm,Calm,-,N/A,,Unknown,0,2013-10-21 09:53:00
5:55 AM,64.4,60.8,88,30.01,10.0,Calm,Calm,-,N/A,,Mostly Cloudy,0,2013-10-21 09:55:00
6:15 AM,64.4,60.8,88,30.02,10.0,NNE,3.5,-,N/A,,Overcast,30,2013-10-21 10:15:00
6:35 AM,64.4,60.8,88,30.01,10.0,NE,3.5,-,N/A,,Overcast,40,2013-10-21 10:35:00
6:53 AM,68.0,61.0,78,30.00,-9999.0,NE,3.5,-,0.01,,Unknown,40,2013-10-21 10:53:00
6:55 AM,64.4,60.8,88,30.01,10.0,NE,3.5,-,N/A,,Overcast,40,2013-10-21 10:55:00
7:15 AM,64.4,60.8,88,30.02,10.0,Calm,Calm,-,N/A,,Mostly Cloudy,0,2013-10-21 11:15:00
7:35 AM,64.4,60.8,88,30.02,10.0,NE,4.6,-,N/A,,Overcast,50,2013-10-21 11:35:00
7:53 AM,68.0,61.0,78,30.01,-9999.0,NE,4.6,-,N/A,,Unknown,40,2013-10-21 11:53:00
7:55 AM,64.4,60.8,88,30.02,10.0,NE,3.5,-,N/A,,Mostly Cloudy,40,2013-10-21 11:55:00
8:15 AM,66.2,60.8,83,30.03,10.0,Calm,Calm,-,N/A,,Overcast,0,2013-10-21 12:15:00
8:35 AM,66.2,60.8,83,30.03,10.0,NE,5.8,-,N/A,,Mostly Cloudy,40,2013-10-21 12:35:00
8:53 AM,69.1,62.1,78,30.01,-9999.0,NE,5.8,-,N/A,,Unknown,40,2013-10-21 12:53:00
8:55 AM,66.2,62.6,88,30.03,10.0,NE,4.6,-,N/A,,Scattered Clouds,50,2013-10-21 12:55:00
9:15 AM,68.0,62.6,83,30.04,10.0,NE,5.8,-,N/A,,Scattered Clouds,40,2013-10-21 13:15:00
9:35 AM,69.8,62.6,78,30.04,10.0,ENE,5.8,-,N/A,,Mostly Cloudy,60,2013-10-21 13:35:00
9:53 AM,72.0,64.0,76,30.04,-9999.0,Calm,Calm,-,N/A,,Unknown,0,2013-10-21 13:53:00
9:55 AM,69.8,64.4,83,30.05,10.0,ESE,3.5,-,N/A,,Overcast,110,2013-10-21 13:55:00
10:15 AM,71.6,64.4,78,30.05,10.0,ENE,3.5,-,N/A,,Overcast,60,2013-10-21 14:15:00
10:35 AM,71.6,64.4,78,30.05,10.0,Calm,Calm,-,N/A,,Overcast,0,2013-10-21 14:35:00
10:53 AM,73.9,66.0,76,30.03,-9999.0,Calm,Calm,-,N/A,,Unknown,0,2013-10-21 14:53:00
10:55 AM,71.6,66.2,83,30.05,10.0,Calm,Calm,-,N/A,,Overcast,0,2013-10-21 14:55:00
11:15 AM,71.6,66.2,83,30.05,10.0,Calm,Calm,-,N/A,,Overcast,0,2013-10-21 15:15:00
11:35 AM,73.4,66.2,78,30.05,10.0,NE,4.6,-,N/A,,Overcast,50,2013-10-21 15:35:00
11:53 AM,78.1,68.0,71,30.03,-9999.0,ENE,6.9,-,N/A,,Unknown,60,2013-10-21 15:53:00
11:55 AM,77.0,68.0,74,30.04,10.0,NE,6.9,-,N/A,,Overcast,50,2013-10-21 15:55:00
12:15 PM,77.0,68.0,74,30.04,10.0,NE,5.8,-,N/A,,Mostly Cloudy,40,2013-10-21 16:15:00
12:35 PM,77.0,68.0,74,30.04,10.0,ENE,3.5,-,N/A,,Overcast,70,2013-10-21 16:35:00
12:53 PM,80.1,68.0,67,30.02,-9999.0,NNE,3.5,-,N/A,,Unknown,30,2013-10-21 16:53:00
12:55 PM,77.0,68.0,74,30.03,10.0,NNE,3.5,-,N/A,,Overcast,30,2013-10-21 16:55:00
1:15 PM,78.8,68.0,69,30.02,10.0,NE,4.6,-,N/A,,Overcast,50,2013-10-21 17:15:00
1:53 PM,82.0,68.0,62,29.99,-9999.0,NNE,5.8,-,0.01,,Unknown,30,2013-10-21 17:53:00
1:55 PM,80.6,68.0,65,30.00,10.0,NNE,6.9,-,N/A,,Mostly Cloudy,30,2013-10-21 17:55:00
2:15 PM,80.6,68.0,65,29.99,10.0,NNE,5.8,-,N/A,,Mostly Cloudy,30,2013-10-21 18:15:00
2:35 PM,80.6,68.0,65,29.99,10.0,ENE,3.5,-,N/A,,Scattered Clouds,60,2013-10-21 18:35:00
2:53 PM,82.0,68.0,62,29.97,-9999.0,NE,3.5,-,N/A,,Unknown,40,2013-10-21 18:53:00
2:55 PM,80.6,68.0,65,29.98,10.0,Calm,Calm,-,N/A,,Mostly Cloudy,0,2013-10-21 18:55:00
3:15 PM,80.6,68.0,65,29.98,10.0,North,4.6,-,N/A,,Mostly Cloudy,360,2013-10-21 19:15:00
3:35 PM,80.6,68.0,65,29.97,10.0,North,5.8,-,N/A,,Scattered Clouds,360,2013-10-21 19:35:00
3:53 PM,82.9,69.1,63,29.96,-9999.0,Variable,6.9,-,N/A,,Unknown,0,2013-10-21 19:53:00
3:55 PM,80.6,68.0,65,29.97,10.0,NNE,4.6,-,N/A,,Clear,20,2013-10-21 19:55:00
4:15 PM,80.6,68.0,65,29.97,10.0,North,5.8,-,N/A,,Scattered Clouds,10,2013-10-21 20:15:00
4:35 PM,80.6,68.0,65,29.96,10.0,NNE,5.8,-,N/A,,Clear,20,2013-10-21 20:35:00
4:53 PM,84.0,69.1,61,29.94,-9999.0,NNE,8.1,-,N/A,,Unknown,20,2013-10-21 20:53:00
4:55 PM,80.6,68.0,65,29.96,10.0,NNE,5.8,-,N/A,,Clear,30,2013-10-21 20:55:00
5:15 PM,80.6,68.0,65,29.96,10.0,North,9.2,-,N/A,,Scattered Clouds,10,2013-10-21 21:15:00
5:35 PM,78.8,68.0,69,29.96,10.0,North,5.8,-,N/A,,Scattered Clouds,10,2013-10-21 21:35:00
5:53 PM,82.0,69.1,65,29.94,-9999.0,North,5.8,-,N/A,,Unknown,10,2013-10-21 21:53:00
5:55 PM,78.8,68.0,69,29.96,10.0,North,5.8,-,N/A,,Scattered Clouds,10,2013-10-21 21:55:00
6:15 PM,78.8,68.0,69,29.96,10.0,North,8.1,-,N/A,,Mostly Cloudy,360,2013-10-21 22:15:00
6:35 PM,77.0,68.0,74,29.97,10.0,NNE,3.5,-,N/A,,Scattered Clouds,30,2013-10-21 22:35:00
6:53 PM,78.1,69.1,74,29.96,-9999.0,North,3.5,-,N/A,,Unknown,10,2013-10-21 22:53:00
6:55 PM,75.2,68.0,78,29.97,10.0,NNE,3.5,-,N/A,,Clear,20,2013-10-21 22:55:00
7:15 PM,73.4,68.0,83,29.97,10.0,North,3.5,-,N/A,,Clear,10,2013-10-21 23:15:00
7:35 PM,73.4,68.0,83,29.98,10.0,NNE,3.5,-,N/A,,Clear,20,2013-10-21 23:35:00
7:53 PM,75.0,69.1,82,29.97,-9999.0,NNE,3.5,-,N/A,,Unknown,30,2013-10-21 23:53:00
7:55 PM,73.4,68.0,83,29.98,10.0,NNE,3.5,-,N/A,,Clear,30,2013-10-21 23:55:00
8:15 PM,73.4,68.0,83,29.98,10.0,NE,3.5,-,N/A,,Clear,40,2013-10-22 00:15:00
8:35 PM,71.6,68.0,88,29.98,10.0,ENE,3.5,-,N/A,,Clear,60,2013-10-22 00:35:00
8:53 PM,73.9,68.0,82,29.97,-9999.0,Calm,Calm,-,N/A,,Unknown,0,2013-10-22 00:53:00
8:55 PM,71.6,68.0,88,29.98,10.0,Calm,Calm,-,N/A,,Clear,0,2013-10-22 00:55:00
9:15 PM,71.6,68.0,88,29.99,10.0,Calm,Calm,-,N/A,,Clear,0,2013-10-22 01:15:00
9:35 PM,71.6,68.0,88,30.00,10.0,Calm,Calm,-,N/A,,Clear,0,2013-10-22 01:35:00
9:53 PM,73.0,68.0,84,29.99,-9999.0,Calm,Calm,-,N/A,,Unknown,0,2013-10-22 01:53:00
9:55 PM,71.6,68.0,88,30.00,10.0,Calm,Calm,-,N/A,,Clear,0,2013-10-22 01:55:00
10:15 PM,69.8,68.0,94,30.00,10.0,North,3.5,-,N/A,,Clear,10,2013-10-22 02:15:00
10:35 PM,69.8,68.0,94,30.00,10.0,Calm,Calm,-,N/A,,Scattered Clouds,0,2013-10-22 02:35:00
10:53 PM,72.0,68.0,87,30.00,-9999.0,NNE,4.6,-,N/A,,Unknown,20,2013-10-22 02:53:00
10:55 PM,69.8,68.0,94,30.01,10.0,NNE,3.5,-,N/A,,Overcast,20,2013-10-22 02:55:00
11:15 PM,69.8,68.0,94,30.01,10.0,NNE,4.6,-,N/A,,Overcast,20,2013-10-22 03:15:00
11:35 PM,69.8,68.0,94,30.01,10.0,NNE,4.6,-,N/A,,Overcast,30,2013-10-22 03:35:00
11:53 PM,72.0,66.9,84,29.99,-9999.0,NNE,3.5,-,N/A,,Unknown,20,2013-10-22 03:53:00
11:55 PM,69.8,68.0,94,30.00,10.0,NNE,4.6,-,N/A,,Overcast,30,2013-10-22 03:55:00